Tracking 27420 objects as of 28-May-2023
HD Live streaming from Space Station
objects crossing your sky now

STARLINK-5376

Track STARLINK-5376 now!
10-day predictions
STARLINK-5376 is classified as:


NORAD ID: 56142
Int'l Code: 2023-046BC
Perigee: 461.6 km
Apogee: 463.6 km
Inclination: 43.0 °
Period: 93.7 minutes
Semi major axis: 6833 km
RCS: Unknown
Launch date: March 29, 2023
Source: United States (US)
Launch site: AIR FORCE EASTERN TEST RANGE (AFETR)
Your satellite tracking list
Your tracking list is empty




NASA's NSSDC Master Catalog

Two Line Element Set (TLE):
1 56142U 23046BC  23148.25001157 -.00861967  00000-0 -25396-1 0  9997
2 56142  42.9990 271.5021 0001478 270.1982  97.7350 15.36843143  1303
Source of the keplerian elements: AFSPC